Location: Waco, TX
(31.5480°N, 97.1670°W)
Time: 06:09:08
(UTC-05:00)

Hubble Space Telescope - Visible Passes

Search period start: 19 October 2017 00:00
Search period end: 29 October 2017 00:00
Orbit: 537 x 541 km, 28.5° (Epoch: 19 October)

Date Brightness Start Highest point End Pass type
(mag) Time Alt. Az. Time Alt. Az. Time Alt. Az.
19 Oct 2.8 19:33:52 10° SSW 19:36:16 15° SSE 19:38:39 10° ESE visible
19 Oct 3.4 21:13:11 10° SW 21:14:05 15° SW 21:14:05 15° SW visible
20 Oct 2.6 19:23:04 10° SSW 19:25:59 19° SSE 19:28:54 10° ESE visible
20 Oct 2.9 21:02:53 10° WSW 21:04:35 22° SW 21:04:35 22° SW visible
21 Oct 2.4 19:12:27 10° SSW 19:15:44 23° SSE 19:19:01 10° ESE visible
21 Oct 2.3 20:52:37 10° WSW 20:55:02 31° SW 20:55:02 31° SW visible
22 Oct 1.7 20:42:23 10° WSW 20:45:28 42° SW 20:45:28 42° SW visible
23 Oct 1.2 20:32:10 10° WSW 20:35:52 53° SSW 20:35:52 53° SSW visible
24 Oct 1.0 20:21:58 10° WSW 20:26:01 56° S 20:26:15 55° SSE visible
25 Oct 1.1 20:11:46 10° W 20:15:49 56° S 20:16:38 46° SE visible
26 Oct 1.2 20:01:35 10° W 20:05:38 54° S 20:07:03 35° SE visible
27 Oct 1.3 19:51:24 10° W 19:55:26 50° S 19:57:30 25° ESE visible
28 Oct 1.5 19:41:14 10° W 19:45:13 46° S 19:48:00 18° ESE visible
28 Oct 3.9 21:22:56 10° WSW 21:23:22 12° WSW 21:23:22 12° WSW visible
